This is the latest recevied weather packets stored in our database for station/object JG6YCL-13. If no packets are shown the sender has not sent any weather packets the latest 1 day(s).
| Time | Temp. | Humidity | Pressure | Rain* | Wind** | Luminosity | Snow |
|---|---|---|---|---|---|---|---|
| 1778047066 | 28.33° C | 40% | 1004.2 hPa | - | - | - | - |
| 1778046765 | 28.33° C | 40% | 1004.1 hPa | - | - | - | - |
| 1778045260 | 27.22° C | 41% | 1004.2 hPa | - | - | - | - |
| 1778044358 | 28.33° C | 40% | 1004.2 hPa | - | - | - | - |
| 1778044056 | 27.78° C | 40% | 1004.3 hPa | - | - | - | - |
| 1778043756 | 27.78° C | 41% | 1004.4 hPa | - | - | - | - |
| 1778043460 | 27.22° C | 42% | 1004.4 hPa | - | - | - | - |
| 1778043160 | 27.22° C | 42% | 1004.6 hPa | - | - | - | - |
| 1778042867 | 27.22° C | 41% | 1004.6 hPa | - | - | - | - |
| 1778042561 | 26.67° C | 42% | 1004.7 hPa | - | - | - | - |
| 1778041949 | 26.67° C | 43% | 1004.9 hPa | - | - | - | - |
| 1778041658 | 26.67° C | 43% | 1005 hPa | - | - | - | - |
| 1778041349 | 26.67° C | 44% | 1005.1 hPa | - | - | - | - |
| 1778041046 | 26.67° C | 42% | 1005.2 hPa | - | - | - | - |
| 1778040746 | 26.67° C | 43% | 1005.2 hPa | - | - | - | - |
| 1778040444 | 26.11° C | 42% | 1005.2 hPa | - | - | - | - |
| 1778040144 | 26.67° C | 41% | 1005.3 hPa | - | - | - | - |
| 1778039856 | 26.67° C | 41% | 1005.3 hPa | - | - | - | - |
| 1778039544 | 26.11° C | 42% | 1005.5 hPa | - | - | - | - |
| 1778039240 | 26.67° C | 41% | 1005.5 hPa | - | - | - | - |
| 1778038939 | 26.11° C | 43% | 1005.5 hPa | - | - | - | - |
| 1778038668 | 26.11° C | 43% | 1005.6 hPa | - | - | - | - |
| 1778038337 | 26.11° C | 43% | 1005.8 hPa | - | - | - | - |
| 1778038037 | 25.56° C | 43% | 1005.7 hPa | - | - | - | - |
| 1778037736 | 25.56° C | 44% | 1005.9 hPa | - | - | - | - |
* Rain since midnight (hover to see other rain measurements)
** Current wind speed in m/s (hover to see current wind gust speed)